Theta_e
300 297 295 296 297 298 299 298 304 312 314 312 312 311 312 316 316 316 316 316 316 318 321 323 323 322 322 322 320 318 317 319 323 322 321 321 320 322 322 322 320 324 324 323
298 295 300 303 302 301 299 296 298 308 311 308 308 309 314 315 314 315 315 316 314 314 316 317 317 316 316 316 315 314 314 313 313 314 316 317 317 321 320 318 319 321 321 322
296 299 306 304 300 300 296 295 295 300 309 310 307 305 307 311 314 314 314 315 315 314 312 311 311 312 314 314 315 315 316 316 316 317 317 316 315 317 317 315 316 318 318 317
300 304 304 302 301 299 295 300 300 306 296 295 304 293 305 307 306 308 308 309 310 311 311 311 311 311 313 314 315 316 316 315 316 315 313 309 308 311 313 311 314 313 314 312
299 303 302 301 302 303 299 302 299 298 292 293 298 295 302 306 303 305 307 308 308 309 306 307 311 312 314 314 313 314 312 309 310 310 307 306 305 306 308 306 304 304 305 308
305 309 307 305 306 305 304 299 296 293 290 286 294 296 300 304 304 305 306 306 305 303 304 305 308 309 309 310 311 309 308 306 306 305 305 304 304 305 306 303 302 303 304 306
303 303 307 308 301 303 300 292 286 286 285 284 297 295 302 306 307 307 304 301 303 303 304 304 304 304 305 305 306 306 304 302 303 302 302 302 303 302 304 306 307 306 304 305
296 294 302 306 300 297 295 292 287 282 283 285 299 294 300 307 308 307 305 302 303 304 303 304 304 303 302 303 303 303 303 305 302 301 301 301 302 302 302 303 303 304 304 308
295 297 306 306 304 301 296 293 293 289 288 286 294 300 305 306 305 305 303 303 302 301 303 302 303 302 302 300 300 300 302 300 300 300 300 301 301 300 299 301 302 306 308 307
301 294 304 305 305 303 300 301 292 290 284 282 291 293 295 302 302 303 302 301 301 302 301 303 302 299 300 299 299 300 299 299 299 300 300 302 299 300 300 300 300 302 302 303
300 296 298 300 297 295 296 295 294 292 289 284 283 288 302 306 304 302 304 301 301 301 304 301 298 298 298 298 298 299 299 299 299 299 299 300 299 300 300 299 300 301 302 303
301 294 290 294 302 302 300 296 294 288 288 289 288 287 303 301 302 302 303 303 306 303 300 298 298 299 299 298 299 299 300 301 301 298 298 299 300 300 299 300 301 302 300 302
299 294 289 292 296 298 298 300 296 294 291 288 285 287 302 305 305 305 304 302 299 300 299 299 299 299 298 299 300 300 301 303 300 299 299 299 299 299 299 299 300 301 302 304
308 296 292 288 291 295 297 301 300 293 287 290 293 294 297 300 302 302 301 299 298 298 299 299 299 296 296 298 299 300 301 300 300 300 299 300 301 301 301 300 301 302 302 301
300 293 295 296 301 302 301 299 299 297 297 292 295 294 296 298 299 302 299 298 298 298 298 298 295 295 296 297 300 300 300 301 302 302 302 302 303 304 303 303 303 303 302 302
299 292 295 296 301 301 298 300 300 299 298 296 294 292 299 297 299 297 295 297 297 297 297 296 296 296 297 301 302 302 300 302 303 303 303 303 301 299 301 301 301 302 301 300
298 295 292 289 298 297 292 297 298 297 297 295 289 293 296 297 296 293 294 295 295 297 296 296 296 298 301 301 302 301 301 304 303 302 302 300 300 300 299 300 299 299 299 299
297 294 292 289 291 284 300 306 303 297 297 296 296 296 296 295 294 294 294 293 295 296 296 297 297 300 300 302 302 302 303 303 303 301 300 300 301 300 300 299 299 299 298 298
301 296 291 286 285 295 300 303 300 298 297 298 296 296 296 295 295 293 297 297 298 296 296 297 297 297 299 300 300 301 301 302 301 299 300 299 300 299 299 299 299 300 299 300
303 298 293 289 285 285 295 305 307 300 288 297 297 296 295 295 287 289 295 300 299 297 300 297 297 298 300 301 301 300 300 300 300 301 300 298 299 299 298 299 299 300 301 301
293 293 290 288 285 293 301 305 303 287 288 297 297 298 297 292 291 293 299 299 295 300 297 297 298 300 300 301 301 300 300 298 301 301 302 301 301 300 299 299 299 300 300 301
293 290 288 289 285 284 304 302 292 294 295 297 296 294 294 294 296 298 299 295 297 299 297 300 299 300 301 302 301 299 298 301 302 302 301 300 300 300 300 299 299 299 299 299
292 294 292 292 291 299 301 299 298 298 296 296 295 295 296 296 295 298 295 295 299 295 299 301 300 301 301 302 301 299 300 302 302 302 300 300 300 300 300 299 299 299 299 299
299 301 296 295 298 299 298 298 299 299 298 298 297 297 296 295 296 296 296 296 299 299 300 301 301 300 299 302 301 301 301 302 301 300 300 301 300 300 300 300 301 300 298 298
299 300 297 296 298 301 300 298 298 299 299 299 299 298 298 297 296 298 297 300 300 301 301 301 300 300 300 303 300 301 302 302 301 301 302 301 301 300 300 301 299 300 298 296
300 299 295 294 301 299 299 299 300 299 298 299 299 298 297 298 299 297 299 300 300 299 301 300 300 300 301 302 302 303 303 303 301 299 297 296 299 300 300 300 300 298 297 295
Wind_Speed
5 4 4 1 3 1 1 5 12 10 11 18 16 17 12 11 11 12 11 9 10 12 10 9 9 8 8 10 11 11 10 9 6 3 2 2 2 2 2 3 3 4 4 3
6 2 5 4 7 4 7 6 10 11 10 17 15 16 13 10 9 8 8 7 8 9 10 10 10 9 8 7 6 7 8 7 5 2 3 2 3 3 2 2 4 6 6 4
5 5 8 7 4 11 4 6 2 10 19 17 20 10 9 9 10 9 9 7 8 6 6 6 8 6 5 5 3 6 6 5 5 5 4 4 3 3 2 5 4 4 7 5
7 6 10 9 6 4 7 3 7 21 6 6 6 6 5 8 6 5 3 4 2 3 3 4 4 3 3 2 2 2 2 4 3 4 3 3 3 4 3 4 3 5 5 7
1 3 7 8 2 3 3 2 4 4 4 6 3 6 7 11 6 5 2 1 1 1 1 2 2 2 2 3 3 4 6 7 7 7 6 4 5 4 4 3 6 5 6 6
1 1 3 1 1 3 2 4 7 5 4 5 5 5 3 3 5 4 3 4 2 3 2 2 4 5 5 5 5 5 5 6 6 6 7 6 6 7 5 6 5 4 3 4
7 7 4 5 7 7 9 8 5 6 6 3 3 7 4 5 5 6 6 6 7 6 5 4 4 4 5 6 5 5 3 5 6 7 6 6 6 6 6 6 4 4 4 3
3 7 7 9 4 2 3 5 6 4 3 3 5 4 4 5 5 4 4 7 5 5 4 6 6 4 4 5 4 4 5 5 7 7 7 5 4 4 4 5 5 4 4 4
3 0 5 6 5 4 5 5 2 4 2 5 3 4 3 4 5 6 6 5 5 4 6 7 7 5 5 3 3 5 6 6 6 6 6 5 5 6 6 7 5 4 5 4
1 2 3 2 8 9 6 3 6 5 3 2 1 2 3 11 8 5 6 6 5 5 5 5 3 3 2 3 4 5 5 5 5 6 5 4 6 6 6 5 6 6 6 5
3 4 7 5 5 3 7 6 4 5 3 4 3 6 3 2 6 8 6 6 6 4 2 3 1 2 4 5 6 6 6 6 7 6 6 6 6 7 6 5 5 6 5 5
4 4 2 2 2 4 5 3 3 5 2 2 3 6 5 3 1 4 4 4 1 5 6 2 4 5 5 5 6 6 7 6 6 6 4 5 5 5 6 7 6 6 5 5
0 5 4 10 6 6 7 5 3 4 3 2 4 4 3 3 1 2 2 6 7 6 4 4 4 4 6 6 6 7 7 6 6 5 5 6 6 6 7 5 5 6 5 5
9 3 6 5 6 1 4 5 4 4 3 2 2 2 1 2 4 3 7 7 5 5 6 4 4 5 6 6 6 6 7 6 5 5 6 6 6 6 5 5 5 5 5 5
5 3 2 2 6 5 4 5 8 6 1 3 2 1 2 2 3 3 8 5 7 6 5 3 5 5 5 6 6 6 6 6 4 5 5 5 6 6 6 7 6 6 6 6
4 1 3 5 8 7 9 6 6 4 4 4 2 3 4 5 10 8 5 6 6 4 4 6 6 7 6 5 5 5 5 6 5 5 6 6 6 6 6 6 7 6 5 4
3 4 3 2 4 2 5 4 4 3 4 1 2 1 4 4 7 4 5 5 4 4 5 6 6 5 6 6 6 6 6 4 5 5 6 6 6 7 7 6 6 6 5 4
5 4 2 0 4 2 1 3 2 6 2 2 3 4 3 6 4 5 2 3 4 4 5 6 6 6 6 6 7 6 8 7 6 6 6 6 7 6 6 6 6 6 4 4
4 5 4 4 1 1 1 2 5 5 3 2 4 6 6 5 4 4 3 3 4 4 4 3 5 4 6 7 6 6 6 6 5 5 6 6 7 7 7 8 7 5 4 4
5 7 6 2 3 5 1 1 6 4 3 2 5 7 9 4 2 3 2 4 4 4 3 5 5 4 5 6 6 5 6 6 6 6 5 5 5 6 7 7 7 5 4 4
3 4 4 1 1 5 3 5 2 2 6 2 4 5 7 3 4 4 5 4 1 3 4 4 4 4 5 5 5 6 5 6 6 5 6 6 6 5 6 5 5 6 6 5
3 4 1 2 2 3 3 3 1 4 2 4 3 3 6 6 5 6 4 4 3 4 4 3 3 4 5 5 4 6 6 5 4 5 6 7 6 5 5 6 7 7 6 6
2 6 6 5 6 4 3 1 3 4 5 3 6 3 5 6 3 4 3 4 3 2 2 2 3 3 4 5 5 4 5 5 5 5 5 5 5 5 5 6 7 5 6 5
4 2 5 3 2 1 4 3 4 3 5 6 5 6 5 6 6 5 4 2 2 1 2 3 4 4 4 4 5 4 5 5 5 5 5 4 4 5 4 4 5 5 5 6
4 4 4 0 1 3 1 2 5 6 8 8 5 5 6 7 4 5 3 3 1 1 3 3 3 3 3 4 5 5 5 5 5 5 5 5 4 4 4 4 3 4 3 2
2 6 5 6 8 5 4 7 8 10 7 7 7 4 3 6 6 5 3 2 1 2 2 3 3 3 3 4 5 4 5 5 5 5 4 4 3 4 5 4 4 4 3 3
Wind_Direction
342 57 255 161 222 103 183 98 105 115 120 73 89 89 68 65 67 70 73 80 83 88 83 65 80 80 71 32 23 25 31 16 15 6 335 306 298 251 239 277 322 331 7 313
20 352 276 76 106 137 62 54 88 69 88 96 104 85 71 81 72 75 90 70 74 76 63 58 48 47 49 44 25 25 28 17 31 9 323 311 285 279 269 55 300 352 341 333
81 335 94 97 81 68 47 81 35 112 88 112 118 89 95 76 80 57 47 50 48 52 64 67 79 61 62 54 51 56 26 29 3 350 332 323 293 286 282 261 2 331 302 313
70 315 93 72 67 122 49 316 127 148 132 184 206 132 138 125 96 65 39 23 55 106 139 92 93 88 49 46 43 49 307 329 302 300 300 314 294 315 294 330 323 328 323 329
352 24 69 76 102 83 221 356 61 136 109 99 83 91 155 154 157 162 182 249 331 316 79 133 84 70 14 7 345 311 327 330 326 336 334 329 328 302 302 314 332 332 329 337
41 250 35 47 65 39 55 40 34 58 81 60 297 128 143 172 153 150 204 217 213 245 245 318 308 319 310 303 306 310 316 315 336 338 345 353 321 314 322 329 336 330 323 333
357 355 324 53 29 6 51 47 350 357 7 219 260 56 79 115 144 175 198 217 226 242 249 244 267 293 312 317 305 313 347 327 335 340 341 339 335 331 327 315 306 312 306 327
105 351 8 334 68 302 355 130 156 246 214 227 15 96 126 132 119 123 175 221 226 238 273 298 300 338 355 9 29 354 343 337 334 325 325 334 339 334 313 314 312 306 290 282
102 56 335 45 34 45 324 22 264 99 25 74 40 90 154 168 209 186 202 216 228 269 279 287 15 26 74 39 355 346 340 326 328 333 335 329 330 339 320 314 304 291 305 308
98 76 9 343 33 14 76 265 13 10 345 21 101 213 209 206 216 213 229 240 244 253 265 9 43 46 331 325 319 330 340 316 307 333 329 316 321 309 300 316 310 310 310 307
76 84 300 44 55 356 356 5 34 108 103 157 186 248 195 156 170 200 217 228 218 224 37 97 118 335 358 348 343 325 339 342 340 342 330 318 322 320 325 332 326 327 332 343
344 122 26 266 308 11 86 10 67 120 260 67 138 280 41 51 110 165 206 209 139 95 100 42 16 6 356 337 326 339 336 332 318 307 314 325 336 343 7 2 340 335 339 344
343 25 15 346 357 16 49 356 40 96 79 177 129 281 26 37 105 205 236 82 90 84 67 63 50 7 343 337 336 334 322 322 321 344 23 7 354 2 2 339 346 340 347 21
76 88 145 194 235 128 24 353 4 87 85 198 178 342 319 260 259 284 65 94 78 77 72 59 4 334 334 333 331 329 337 337 345 15 28 6 1 1 349 337 357 18 13 39
83 88 65 5 97 90 75 56 34 58 68 103 130 314 270 310 317 45 118 101 85 77 46 359 317 323 321 332 341 350 337 342 347 38 32 9 351 342 349 355 2 7 17 14
9 73 77 41 91 84 70 52 80 67 50 65 78 56 75 73 83 72 80 85 77 43 2 336 332 331 327 342 346 355 346 353 1 30 21 9 357 344 355 352 350 354 360 4
73 109 63 157 164 37 32 23 47 42 18 142 223 196 165 87 84 95 89 79 60 13 343 348 348 353 8 1 353 345 329 5 21 17 18 6 351 6 355 354 352 353 347 355
120 96 71 195 48 39 206 0 60 123 45 70 82 131 101 105 78 85 69 123 55 20 8 1 357 11 3 354 360 356 13 32 22 16 1 358 2 356 348 343 349 354 358 6
65 105 67 98 75 170 199 242 188 220 198 206 162 109 107 125 81 13 12 30 46 30 22 15 13 3 3 11 357 3 12 10 14 358 7 1 356 357 349 1 356 4 339 347
49 69 104 107 135 208 194 284 276 110 283 57 123 159 163 146 27 261 345 92 55 56 38 35 5 350 9 359 354 13 16 4 359 355 355 356 350 353 354 354 355 355 1 8
28 19 100 82 152 291 267 309 66 119 240 102 127 161 164 190 203 185 117 86 99 59 57 28 16 11 359 353 358 21 5 357 345 348 358 3 5 10 8 355 2 5 8 15
140 119 149 80 85 306 21 321 353 195 55 126 101 111 111 125 127 113 93 138 93 60 34 27 11 14 355 357 13 23 9 328 349 4 9 7 360 9 15 12 4 8 9 16
26 171 175 158 217 254 326 122 86 116 133 142 126 123 137 133 130 119 137 126 74 80 21 28 13 20 10 11 23 18 333 328 352 359 4 359 360 10 16 15 15 10 7 17
18 129 93 75 275 69 112 78 98 132 130 129 122 140 145 136 138 147 119 148 123 322 36 8 27 29 19 11 353 4 344 332 0 359 353 345 352 352 19 11 8 17 19 31
198 83 125 48 358 82 237 117 134 101 106 109 119 135 140 130 148 119 134 114 109 53 38 46 30 21 19 347 349 349 341 346 1 4 7 16 10 19 23 26 22 18 23 22
170 167 158 223 205 155 178 148 140 132 137 138 129 120 130 140 129 129 114 100 84 63 28 37 23 28 360 346 1 356 344 5 14 25 17 17 22 20 22 15 17 11 344 44